Weather History for Omaha Offutt, NE

Change the Weather History Date:

Sunday, August 4, 2013

  Actual Average Record
Temperature  
Mean Temperature 70 °F -  
Max Temperature 80 °F 83 °F 98 °F (2002)
Min Temperature 60 °F 65 °F 58 °F (2012)
Cooling Degree Days 4    
Growing Degree Days 20 (Base 50)    
Moisture  
Dew Point 60 °F    
Average Humidity 69    
Maximum Humidity 88    
Minimum Humidity 51    
Precipitation  
Precipitation 0.00 in - - ()
Sea Level Pressure  
Sea Level Pressure 30.11 in    
Wind  
Wind Speed 8 mph (ESE)    
Max Wind Speed 15 mph    
Max Gust Speed -    
Visibility 10 miles    
Events      
Averages and records for this station are not official NWS values.
T = Trace of Precipitation, MM = Missing Value Source: NWS Daily Summary

Daily Weather History Graph

Daily Weather History Graph

Search for Another Location

Airport:

Trip Planner

Search our weather history database for the weather conditions in past years. The results will help you decide how hot, cold, wet, or windy it might be!

Date:

Astronomy

Aug. 04, 2013 Rise Set
Actual Time 6:22 AM CDT 8:36 PM CDT
Civil Twilight 5:51 AM CDT 9:06 PM CDT
Nautical Twilight 5:14 AM CDT 9:44 PM CDT
Astronomical Twilight 4:32 AM CDT 10:25 PM CDT
Moon 4:24 AM CDT (8/4) 7:00 PM CDT (8/4)
Length of Visible Light 15h 14m
Length of Day
14h 13m
Waning Crescent, 4% of the Moon is Illuminated
Aug 4
Waning Crescent
Aug 6
New
Aug 14
First Quarter
Aug 20
Full
Aug 28
Last Quarter

Hourly Weather History & Observations

Time (CDT) Temp. Dew Point Humidity Pressure Visibility Wind Dir Wind Speed Gust Speed Precip Events Conditions
12:58 AM 64.0 °F 57.2 °F 78% 30.19 in 10.0 mi NE 5.8 mph - N/A   Clear
1:58 AM 63.9 °F 57.0 °F 78% 30.15 in 10.0 mi ENE 8.1 mph - N/A   Clear
2:58 AM 62.6 °F 56.3 °F 80% 30.15 in 10.0 mi East 5.8 mph - N/A   Clear
3:58 AM 63.1 °F 55.9 °F 77% 30.18 in 10.0 mi ENE 5.8 mph - N/A   Clear
4:58 AM 61.9 °F 55.9 °F 81% 30.18 in 10.0 mi East 4.6 mph - N/A   Clear
5:58 AM 60.8 °F 55.8 °F 83% 30.17 in 10.0 mi ENE 4.6 mph - N/A   Clear
6:58 AM 61.3 °F 55.4 °F 81% 30.18 in 10.0 mi East 3.5 mph - N/A   Clear
7:58 AM 67.5 °F 57.0 °F 69% 30.17 in 10.0 mi East 5.8 mph - N/A   Clear
8:58 AM 69.4 °F 56.3 °F 63% 30.17 in 10.0 mi East 6.9 mph - N/A   Clear
9:58 AM 72.5 °F 57.2 °F 59% 30.18 in 10.0 mi ESE 10.4 mph - N/A   Mostly Cloudy
10:58 AM 75.0 °F 57.7 °F 55% 30.16 in 10.0 mi SE 10.4 mph - N/A   Mostly Cloudy
11:58 AM 75.0 °F 57.6 °F 54% 30.15 in 10.0 mi SE 12.7 mph - N/A   Overcast
12:58 PM 75.7 °F 59.2 °F 56% 30.13 in 10.0 mi East 12.7 mph - N/A   Mostly Cloudy
1:58 PM 79.3 °F 59.5 °F 51% 30.12 in 10.0 mi SE 13.8 mph - N/A   Scattered Clouds
2:58 PM 77.4 °F 60.8 °F 57% 30.11 in 10.0 mi ESE 15.0 mph - N/A   Overcast
3:58 PM 76.1 °F 60.8 °F 59% 30.09 in 10.0 mi SE 6.9 mph - N/A   Overcast
4:38 PM 77.0 °F 60.8 °F 57% 30.06 in 10.0 mi SSE 12.7 mph - N/A   Mostly Cloudy
4:58 PM 77.0 °F 62.6 °F 61% 30.05 in 10.0 mi SE 12.7 mph - N/A   Overcast
5:58 PM 79.5 °F 63.7 °F 58% 30.04 in 10.0 mi SSE 13.8 mph - N/A   Clear
6:58 PM 78.3 °F 64.2 °F 62% 30.04 in 10.0 mi ESE 11.5 mph - N/A   Partly Cloudy
7:48 PM 77.0 °F 64.4 °F 65% 30.04 in 10.0 mi ESE 10.4 mph - N/A   Mostly Cloudy
7:58 PM 76.1 °F 65.5 °F 70% 30.04 in 10.0 mi ESE 9.2 mph - N/A   Mostly Cloudy
8:58 PM 73.9 °F 66.0 °F 76% 30.03 in 10.0 mi SE 8.1 mph - N/A   Overcast
9:58 PM 72.7 °F 66.9 °F 82% 30.05 in 10.0 mi SSE 12.7 mph - N/A   Overcast
10:58 PM 72.0 °F 67.3 °F 85% 30.05 in 10.0 mi SSE 8.1 mph - N/A   Overcast
11:58 PM 70.5 °F 66.9 °F 88% 30.04 in 10.0 mi ESE 8.1 mph - N/A   Mostly Cloudy